Time,TemperatureF,DewpointF,PressureIn,WindDirection,WindDirectionDegrees,WindSpeedMPH,WindSpeedGustMPH,Humidity,HourlyPrecipIn,Conditions,Clouds,dailyrainin,SoftwareType,DateUTC
2013-05-16 00:00:00,53.0,51.3,29.72,NE,51,1.0,1.0,94,0.00,,,0.03,Wunderground v.1.15,2013-05-16 04:00:00,
2013-05-16 00:05:00,53.0,51.6,29.73,NE,51,0.0,8.0,95,0.00,,,0.00,Wunderground v.1.15,2013-05-16 04:05:00,
2013-05-16 00:10:00,52.8,51.4,29.73,NE,51,0.0,8.0,95,0.00,,,0.00,Wunderground v.1.15,2013-05-16 04:10:00,
2013-05-16 00:15:00,52.8,51.7,29.73,NE,51,0.0,8.0,96,0.00,,,0.00,Wunderground v.1.15,2013-05-16 04:15:00,
2013-05-16 00:25:00,52.8,51.7,29.73,NE,51,0.0,8.0,96,0.00,,,0.00,Wunderground v.1.15,2013-05-16 04:25:00,
2013-05-16 00:30:00,52.8,52.0,29.73,NE,51,0.0,8.0,97,0.00,,,0.00,Wunderground v.1.15,2013-05-16 04:30:00,
2013-05-16 00:35:00,52.8,52.0,29.73,NE,51,0.0,8.0,97,0.00,,,0.00,Wunderground v.1.15,2013-05-16 04:35:00,
2013-05-16 00:40:00,52.6,51.8,29.73,NE,51,0.0,8.0,97,0.00,,,0.00,Wunderground v.1.15,2013-05-16 04:40:00,
2013-05-16 00:45:00,52.6,51.8,29.73,NE,51,0.0,8.0,97,0.00,,,0.00,Wunderground v.1.15,2013-05-16 04:45:00,
2013-05-16 00:50:00,52.5,51.7,29.73,NE,51,0.0,8.0,97,0.00,,,0.00,Wunderground v.1.15,2013-05-16 04:50:00,
2013-05-16 00:55:00,52.6,52.1,29.73,NE,51,0.0,8.0,98,0.00,,,0.00,Wunderground v.1.15,2013-05-16 04:55:00,
2013-05-16 01:00:00,52.6,52.1,29.73,NE,51,0.0,8.0,98,0.00,,,0.00,Wunderground v.1.15,2013-05-16 05:00:00,
2013-05-16 01:10:00,52.8,52.3,29.73,NE,51,0.0,8.0,98,0.00,,,0.00,Wunderground v.1.15,2013-05-16 05:10:00,
2013-05-16 01:15:00,52.7,52.2,29.73,NE,51,0.0,8.0,98,0.00,,,0.00,Wunderground v.1.15,2013-05-16 05:15:00,
2013-05-16 01:20:00,52.9,52.4,29.73,NE,51,0.0,8.0,98,0.00,,,0.00,Wunderground v.1.15,2013-05-16 05:20:00,
2013-05-16 01:25:00,53.2,52.9,29.73,NE,51,0.0,8.0,99,0.00,,,0.00,Wunderground v.1.15,2013-05-16 05:25:00,
2013-05-16 01:30:00,53.6,53.3,29.73,NE,51,0.0,8.0,99,0.00,,,0.00,Wunderground v.1.15,2013-05-16 05:30:00,
2013-05-16 01:35:00,53.9,53.6,29.73,NE,51,0.0,8.0,99,0.00,,,0.00,Wunderground v.1.15,2013-05-16 05:35:00,
2013-05-16 01:40:00,54.1,53.8,29.73,NE,51,0.0,8.0,99,0.00,,,0.00,Wunderground v.1.15,2013-05-16 05:40:00,
2013-05-16 01:45:00,54.2,53.9,29.73,NE,51,0.0,8.0,99,0.00,,,0.00,Wunderground v.1.15,2013-05-16 05:45:00,
2013-05-16 01:50:00,54.4,54.1,29.74,NE,51,0.0,8.0,99,0.00,,,0.00,Wunderground v.1.15,2013-05-16 05:50:00,
2013-05-16 02:00:00,54.3,54.0,29.74,NE,51,0.0,8.0,99,0.00,,,0.00,Wunderground v.1.15,2013-05-16 06:00:00,
2013-05-16 02:05:00,54.2,53.9,29.74,NE,51,0.0,8.0,99,0.00,,,0.00,Wunderground v.1.15,2013-05-16 06:05:00,
2013-05-16 02:10:00,54.2,53.9,29.74,NE,51,0.0,8.0,99,0.00,,,0.00,Wunderground v.1.15,2013-05-16 06:10:00,
2013-05-16 02:15:00,54.1,53.8,29.73,NE,51,0.0,8.0,99,0.00,,,0.00,Wunderground v.1.15,2013-05-16 06:15:00,
2013-05-16 02:20:00,54.1,53.8,29.73,NE,51,0.0,8.0,99,0.00,,,0.00,Wunderground v.1.15,2013-05-16 06:20:00,
2013-05-16 02:25:00,54.0,53.4,29.73,NE,51,0.0,8.0,98,0.00,,,0.00,Wunderground v.1.15,2013-05-16 06:25:00,
2013-05-16 02:35:00,54.0,53.7,29.73,NE,49,0.0,8.0,99,0.00,,,0.00,Wunderground v.1.15,2013-05-16 06:35:00,
2013-05-16 02:40:00,54.1,53.8,29.73,NE,49,0.0,8.0,99,0.00,,,0.00,Wunderground v.1.15,2013-05-16 06:40:00,
2013-05-16 02:45:00,54.1,53.8,29.73,NE,49,0.0,8.0,99,0.00,,,0.00,Wunderground v.1.15,2013-05-16 06:45:00,
2013-05-16 02:50:00,53.8,53.2,29.72,NE,49,0.0,8.0,98,0.00,,,0.00,Wunderground v.1.15,2013-05-16 06:50:00,
2013-05-16 02:55:00,53.7,53.1,29.73,NE,49,0.0,8.0,98,0.00,,,0.00,Wunderground v.1.15,2013-05-16 06:55:00,
2013-05-16 03:00:00,53.4,52.8,29.73,NE,49,0.0,8.0,98,0.00,,,0.00,Wunderground v.1.15,2013-05-16 07:00:00,
2013-05-16 03:05:00,53.2,52.7,29.73,NE,49,0.0,8.0,98,0.00,,,0.00,Wunderground v.1.15,2013-05-16 07:05:00,
2013-05-16 03:10:00,53.0,52.5,29.73,NE,49,0.0,8.0,98,0.00,,,0.00,Wunderground v.1.15,2013-05-16 07:10:00,
2013-05-16 03:15:00,52.6,51.8,29.73,NE,49,0.0,8.0,97,0.00,,,0.00,Wunderground v.1.15,2013-05-16 07:15:00,
2013-05-16 03:20:00,52.3,51.8,29.73,NE,49,0.0,8.0,98,0.00,,,0.00,Wunderground v.1.15,2013-05-16 07:20:00,
2013-05-16 03:30:00,51.8,51.3,29.73,NE,49,0.0,8.0,98,0.00,,,0.00,Wunderground v.1.15,2013-05-16 07:30:00,
2013-05-16 03:45:00,51.1,50.6,29.73,NE,49,0.0,8.0,98,0.00,,,0.00,Wunderground v.1.15,2013-05-16 07:45:00,
2013-05-16 03:50:00,50.9,50.4,29.73,NE,49,0.0,8.0,98,0.00,,,0.00,Wunderground v.1.15,2013-05-16 07:50:00,
2013-05-16 03:55:00,50.8,50.3,29.72,NE,49,0.0,8.0,98,0.00,,,0.00,Wunderground v.1.15,2013-05-16 07:55:00,
2013-05-16 04:05:00,50.6,50.1,29.73,NE,49,0.0,8.0,98,0.00,,,0.00,Wunderground v.1.15,2013-05-16 08:05:00,
2013-05-16 04:10:00,50.6,50.1,29.73,NE,49,0.0,8.0,98,0.00,,,0.00,Wunderground v.1.15,2013-05-16 08:10:00,
2013-05-16 04:15:00,50.6,50.1,29.73,NE,49,1.0,8.0,98,0.00,,,0.00,Wunderground v.1.15,2013-05-16 08:15:00,
2013-05-16 04:20:00,50.6,50.1,29.73,NE,49,1.0,1.0,98,0.00,,,0.00,Wunderground v.1.15,2013-05-16 08:20:00,
2013-05-16 04:25:00,50.7,50.2,29.73,NE,49,1.0,8.0,98,0.00,,,0.00,Wunderground v.1.15,2013-05-16 08:25:00,
2013-05-16 04:30:00,50.6,50.1,29.72,NE,49,1.0,8.0,98,0.00,,,0.00,Wunderground v.1.15,2013-05-16 08:30:00,
2013-05-16 04:35:00,50.6,50.1,29.72,NE,49,1.0,8.0,98,0.00,,,0.00,Wunderground v.1.15,2013-05-16 08:35:00,
2013-05-16 04:40:00,50.6,50.1,29.72,NE,49,1.0,1.0,98,0.00,,,0.00,Wunderground v.1.15,2013-05-16 08:40:00,
2013-05-16 04:50:00,50.6,50.1,29.72,NE,49,0.0,8.0,98,0.00,,,0.00,Wunderground v.1.15,2013-05-16 08:50:00,
2013-05-16 04:55:00,50.6,50.1,29.72,NE,49,0.0,8.0,98,0.00,,,0.00,Wunderground v.1.15,2013-05-16 08:55:00,
2013-05-16 05:00:00,50.5,50.0,29.72,NE,49,0.0,8.0,98,0.00,,,0.00,Wunderground v.1.15,2013-05-16 09:00:00,
2013-05-16 05:05:00,50.4,49.9,29.72,NE,49,0.0,8.0,98,0.00,,,0.00,Wunderground v.1.15,2013-05-16 09:05:00,
2013-05-16 05:10:00,50.2,49.7,29.72,NE,49,0.0,8.0,98,0.00,,,0.00,Wunderground v.1.15,2013-05-16 09:10:00,
2013-05-16 05:15:00,50.1,49.3,29.73,NE,49,0.0,8.0,97,0.00,,,0.00,Wunderground v.1.15,2013-05-16 09:15:00,
2013-05-16 05:20:00,50.0,49.2,29.73,NE,38,0.0,8.0,97,0.00,,,0.00,Wunderground v.1.15,2013-05-16 09:20:00,
2013-05-16 05:25:00,50.0,49.2,29.73,NE,38,0.0,8.0,97,0.00,,,0.00,Wunderground v.1.15,2013-05-16 09:25:00,
2013-05-16 05:35:00,50.3,48.9,29.73,NNE,30,1.0,8.0,95,0.00,,,0.00,Wunderground v.1.15,2013-05-16 09:35:00,
2013-05-16 05:45:00,50.9,49.2,29.74,NNE,30,0.0,8.0,94,0.00,,,0.00,Wunderground v.1.15,2013-05-16 09:45:00,
2013-05-16 05:50:00,51.3,49.6,29.74,NNE,30,0.0,8.0,94,0.00,,,0.00,Wunderground v.1.15,2013-05-16 09:50:00,
2013-05-16 05:55:00,51.6,49.6,29.74,NNE,30,0.0,8.0,93,0.00,,,0.00,Wunderground v.1.15,2013-05-16 09:55:00,
2013-05-16 06:00:00,51.9,49.9,29.74,NNE,30,1.0,8.0,93,0.00,,,0.00,Wunderground v.1.15,2013-05-16 10:00:00,
2013-05-16 06:05:00,52.0,49.7,29.74,NNE,29,0.0,8.0,92,0.00,,,0.00,Wunderground v.1.15,2013-05-16 10:05:00,
2013-05-16 06:10:00,52.1,49.8,29.74,ENE,71,0.0,8.0,92,0.00,,,0.00,Wunderground v.1.15,2013-05-16 10:10:00,
2013-05-16 06:15:00,52.1,49.8,29.74,NE,46,0.0,8.0,92,0.00,,,0.00,Wunderground v.1.15,2013-05-16 10:15:00,
2013-05-16 06:20:00,52.0,49.5,29.74,NE,46,0.0,8.0,91,0.00,,,0.00,Wunderground v.1.15,2013-05-16 10:20:00,
2013-05-16 06:30:00,52.7,49.8,29.73,NNE,15,0.0,8.0,90,0.00,,,0.00,Wunderground v.1.15,2013-05-16 10:30:00,
2013-05-16 06:35:00,53.0,50.4,29.74,NNE,15,0.0,8.0,91,0.00,,,0.00,Wunderground v.1.15,2013-05-16 10:35:00,
2013-05-16 06:40:00,53.3,49.8,29.74,NNE,15,0.0,8.0,88,0.00,,,0.00,Wunderground v.1.15,2013-05-16 10:40:00,
2013-05-16 06:45:00,53.8,50.9,29.74,ENE,61,0.0,8.0,90,0.00,,,0.00,Wunderground v.1.15,2013-05-16 10:45:00,
2013-05-16 06:50:00,54.1,50.6,29.75,NNW,337,0.0,8.0,88,0.00,,,0.00,Wunderground v.1.15,2013-05-16 10:50:00,
2013-05-16 06:55:00,54.5,50.7,29.75,NNW,337,0.0,8.0,87,0.00,,,0.00,Wunderground v.1.15,2013-05-16 10:55:00,
2013-05-16 07:00:00,55.2,51.4,29.75,NNW,337,0.0,8.0,87,0.00,,,0.00,Wunderground v.1.15,2013-05-16 11:00:00,
2013-05-16 07:10:00,56.8,52.0,29.75,NNE,22,0.0,8.0,84,0.00,,,0.00,Wunderground v.1.15,2013-05-16 11:10:00,
2013-05-16 07:20:00,58.3,51.5,29.75,South,175,0.0,8.0,78,0.00,,,0.00,Wunderground v.1.15,2013-05-16 11:20:00,
2013-05-16 07:25:00,58.9,49.9,29.76,South,175,0.0,8.0,72,0.00,,,0.00,Wunderground v.1.15,2013-05-16 11:25:00,
2013-05-16 07:30:00,59.7,50.7,29.76,SW,235,0.0,8.0,72,0.00,,,0.00,Wunderground v.1.15,2013-05-16 11:30:00,
2013-05-16 07:35:00,60.3,50.1,29.76,SW,235,0.0,8.0,69,0.00,,,0.00,Wunderground v.1.15,2013-05-16 11:35:00,
2013-05-16 07:40:00,61.1,49.7,29.76,ESE,114,0.0,8.0,66,0.00,,,0.00,Wunderground v.1.15,2013-05-16 11:40:00,
2013-05-16 07:45:00,61.9,50.4,29.76,ESE,111,0.0,8.0,66,0.00,,,0.00,Wunderground v.1.15,2013-05-16 11:45:00,
2013-05-16 07:50:00,62.6,51.1,29.77,ESE,108,0.0,8.0,66,0.00,,,0.00,Wunderground v.1.15,2013-05-16 11:50:00,
2013-05-16 07:55:00,62.9,50.1,29.77,ESE,107,0.0,8.0,63,0.00,,,0.00,Wunderground v.1.15,2013-05-16 11:55:00,
2013-05-16 08:05:00,63.9,52.7,29.78,NNW,336,0.0,8.0,67,0.00,,,0.00,Wunderground v.1.15,2013-05-16 12:05:00,
2013-05-16 08:10:00,64.0,51.1,29.78,SE,134,1.0,8.0,63,0.00,,,0.00,Wunderground v.1.15,2013-05-16 12:10:00,
2013-05-16 08:15:00,64.0,49.8,29.78,NE,49,1.0,8.0,60,0.00,,,0.00,Wunderground v.1.15,2013-05-16 12:15:00,
2013-05-16 08:20:00,64.3,50.1,29.78,NW,306,1.0,1.0,60,0.00,,,0.00,Wunderground v.1.15,2013-05-16 12:20:00,
2013-05-16 08:25:00,64.8,50.1,29.78,NW,308,0.0,8.0,59,0.00,,,0.00,Wunderground v.1.15,2013-05-16 12:25:00,
2013-05-16 08:30:00,65.4,49.8,29.78,NW,308,0.0,8.0,57,0.00,,,0.00,Wunderground v.1.15,2013-05-16 12:30:00,
2013-05-16 08:35:00,65.7,50.5,29.78,WNW,286,0.0,8.0,58,0.00,,,0.00,Wunderground v.1.15,2013-05-16 12:35:00,
2013-05-16 08:45:00,65.9,48.8,29.79,West,272,1.0,8.0,54,0.00,,,0.00,Wunderground v.1.15,2013-05-16 12:45:00,
2013-05-16 08:50:00,65.5,48.4,29.78,West,262,2.0,8.0,54,0.00,,,0.00,Wunderground v.1.15,2013-05-16 12:50:00,
2013-05-16 08:55:00,65.6,50.0,29.79,WNW,283,1.0,8.0,57,0.00,,,0.00,Wunderground v.1.15,2013-05-16 12:55:00,
2013-05-16 09:00:00,65.6,48.0,29.79,WNW,292,2.0,8.0,53,0.00,,,0.00,Wunderground v.1.15,2013-05-16 13:00:00,
2013-05-16 09:05:00,66.0,48.9,29.79,NE,43,1.0,8.0,54,0.00,,,0.00,Wunderground v.1.15,2013-05-16 13:05:00,
2013-05-16 09:10:00,66.8,49.1,29.79,North,350,0.0,8.0,53,0.00,,,0.00,Wunderground v.1.15,2013-05-16 13:10:00,
2013-05-16 09:15:00,67.2,50.5,29.79,WNW,289,1.0,8.0,55,0.00,,,0.00,Wunderground v.1.15,2013-05-16 13:15:00,
2013-05-16 09:20:00,67.4,47.0,29.79,WNW,288,1.0,8.0,48,0.00,,,0.00,Wunderground v.1.15,2013-05-16 13:20:00,
2013-05-16 09:30:00,67.4,48.6,29.79,WNW,296,2.0,8.0,51,0.00,,,0.00,Wunderground v.1.15,2013-05-16 13:30:00,
2013-05-16 09:40:00,67.9,46.3,29.79,NNE,31,2.0,8.0,46,0.00,,,0.00,Wunderground v.1.15,2013-05-16 13:40:00,
2013-05-16 09:45:00,68.6,48.1,29.79,NNW,342,1.0,8.0,48,0.00,,,0.00,Wunderground v.1.15,2013-05-16 13:45:00,
2013-05-16 09:50:00,69.4,46.5,29.78,WNW,298,1.0,8.0,44,0.00,,,0.00,Wunderground v.1.15,2013-05-16 13:50:00,
2013-05-16 09:55:00,69.8,45.0,29.78,ENE,63,1.0,8.0,41,0.00,,,0.00,Wunderground v.1.15,2013-05-16 13:55:00,
2013-05-16 10:00:00,69.9,43.1,29.78,East,86,1.0,1.0,38,0.00,,,0.00,Wunderground v.1.15,2013-05-16 14:00:00,
2013-05-16 10:10:00,70.6,43.7,29.78,North,360,1.0,8.0,38,0.00,,,0.00,Wunderground v.1.15,2013-05-16 14:10:00,
2013-05-16 10:15:00,70.6,44.4,29.78,NE,50,2.0,8.0,39,0.00,,,0.00,Wunderground v.1.15,2013-05-16 14:15:00,
2013-05-16 10:25:00,70.3,43.5,29.78,NNE,17,2.0,8.0,38,0.00,,,0.00,Wunderground v.1.15,2013-05-16 14:25:00,
2013-05-16 10:30:00,70.2,42.7,29.78,West,281,2.0,2.0,37,0.00,,,0.00,Wunderground v.1.15,2013-05-16 14:30:00,
2013-05-16 10:35:00,70.0,41.1,29.78,NNE,33,2.0,8.0,35,0.00,,,0.00,Wunderground v.1.15,2013-05-16 14:35:00,
2013-05-16 10:40:00,70.1,41.2,29.79,NE,35,1.0,8.0,35,0.00,,,0.00,Wunderground v.1.15,2013-05-16 14:40:00,
2013-05-16 10:45:00,69.7,41.5,29.78,NE,39,1.0,8.0,36,0.00,,,0.00,Wunderground v.1.15,2013-05-16 14:45:00,
2013-05-16 10:50:00,69.2,43.8,29.78,North,5,1.0,8.0,40,0.00,,,0.00,Wunderground v.1.15,2013-05-16 14:50:00,
2013-05-16 10:55:00,69.2,41.1,29.78,NNE,32,1.0,8.0,36,0.00,,,0.00,Wunderground v.1.15,2013-05-16 14:55:00,
2013-05-16 11:05:00,70.1,49.5,29.78,East,92,1.0,8.0,48,0.00,,,0.00,Wunderground v.1.15,2013-05-16 15:05:00,
2013-05-16 11:10:00,70.4,39.9,29.77,NE,40,2.0,2.0,33,0.00,,,0.00,Wunderground v.1.15,2013-05-16 15:10:00,
2013-05-16 11:15:00,70.4,44.9,29.77,ENE,75,2.0,8.0,40,0.00,,,0.00,Wunderground v.1.15,2013-05-16 15:15:00,
2013-05-16 11:20:00,71.0,43.4,29.77,NNE,23,1.0,1.0,37,0.00,,,0.00,Wunderground v.1.15,2013-05-16 15:20:00,
2013-05-16 11:25:00,70.9,44.7,29.77,ENE,77,1.0,8.0,39,0.00,,,0.00,Wunderground v.1.15,2013-05-16 15:25:00,
2013-05-16 11:30:00,70.9,44.0,29.77,NNE,24,1.0,8.0,38,0.00,,,0.00,Wunderground v.1.15,2013-05-16 15:30:00,
2013-05-16 11:35:00,71.8,43.4,29.76,East,82,1.0,8.0,36,0.00,,,0.00,Wunderground v.1.15,2013-05-16 15:35:00,
2013-05-16 11:45:00,73.2,41.6,29.76,ENE,62,2.0,8.0,32,0.00,,,0.00,Wunderground v.1.15,2013-05-16 15:45:00,
2013-05-16 11:50:00,73.5,42.6,29.76,North,5,2.0,8.0,33,0.00,,,0.00,Wunderground v.1.15,2013-05-16 15:50:00,
2013-05-16 11:55:00,73.6,45.0,29.75,NE,44,2.0,8.0,36,0.00,,,0.00,Wunderground v.1.15,2013-05-16 15:55:00,
2013-05-16 12:00:00,74.0,42.3,29.76,WNW,298,2.0,2.0,32,0.00,,,0.00,Wunderground v.1.15,2013-05-16 16:00:00,
2013-05-16 12:05:00,74.4,43.4,29.75,WNW,300,1.0,8.0,33,0.00,,,0.00,Wunderground v.1.15,2013-05-16 16:05:00,
2013-05-16 12:10:00,74.7,44.5,29.75,NE,49,2.0,2.0,34,0.00,,,0.00,Wunderground v.1.15,2013-05-16 16:10:00,
2013-05-16 12:15:00,74.6,42.8,29.75,NE,40,2.0,6.0,32,0.00,,,0.00,Wunderground v.1.15,2013-05-16 16:15:00,
2013-05-16 12:25:00,75.2,42.5,29.75,North,5,2.0,8.0,31,0.00,,,0.00,Wunderground v.1.15,2013-05-16 16:25:00,
2013-05-16 12:35:00,75.6,44.5,29.74,NNE,26,2.0,8.0,33,0.00,,,0.00,Wunderground v.1.15,2013-05-16 16:35:00,
2013-05-16 12:40:00,76.4,42.7,29.74,East,97,1.0,8.0,30,0.00,,,0.00,Wunderground v.1.15,2013-05-16 16:40:00,
2013-05-16 12:45:00,76.5,42.7,29.74,NNE,22,2.0,8.0,30,0.00,,,0.00,Wunderground v.1.15,2013-05-16 16:45:00,
2013-05-16 12:50:00,76.2,44.2,29.74,North,5,2.0,2.0,32,0.00,,,0.00,Wunderground v.1.15,2013-05-16 16:50:00,
2013-05-16 13:00:00,76.3,42.6,29.74,SSE,154,1.0,8.0,30,0.00,,,0.00,Wunderground v.1.15,2013-05-16 17:00:00,
2013-05-16 13:05:00,76.3,42.6,29.74,NE,48,2.0,8.0,30,0.00,,,0.00,Wunderground v.1.15,2013-05-16 17:05:00,
2013-05-16 13:15:00,76.7,43.8,29.74,WSW,248,2.0,8.0,31,0.00,,,0.00,Wunderground v.1.15,2013-05-16 17:15:00,
2013-05-16 13:20:00,76.4,44.4,29.73,North,351,2.0,8.0,32,0.00,,,0.00,Wunderground v.1.15,2013-05-16 17:20:00,
2013-05-16 13:25:00,76.1,40.6,29.73,SSW,196,3.0,8.0,28,0.00,,,0.00,Wunderground v.1.15,2013-05-16 17:25:00,
2013-05-16 13:35:00,76.4,41.8,29.73,WNW,284,2.0,8.0,29,0.00,,,0.00,Wunderground v.1.15,2013-05-16 17:35:00,
2013-05-16 13:40:00,76.6,43.7,29.73,NW,323,2.0,2.0,31,0.00,,,0.00,Wunderground v.1.15,2013-05-16 17:40:00,
2013-05-16 13:45:00,76.8,44.7,29.73,NW,319,2.0,8.0,32,0.00,,,0.00,Wunderground v.1.15,2013-05-16 17:45:00,
2013-05-16 13:50:00,77.0,43.2,29.73,West,272,2.0,8.0,30,0.00,,,0.00,Wunderground v.1.15,2013-05-16 17:50:00,
2013-05-16 13:55:00,77.3,45.1,29.73,WNW,284,2.0,8.0,32,0.00,,,0.00,Wunderground v.1.15,2013-05-16 17:55:00,
2013-05-16 14:05:00,77.4,43.5,29.73,NNW,338,2.0,8.0,30,0.00,,,0.00,Wunderground v.1.15,2013-05-16 18:05:00,
2013-05-16 14:10:00,77.2,42.5,29.72,ENE,63,2.0,8.0,29,0.00,,,0.00,Wunderground v.1.15,2013-05-16 18:10:00,
2013-05-16 14:15:00,77.3,45.1,29.72,East,82,2.0,8.0,32,0.00,,,0.00,Wunderground v.1.15,2013-05-16 18:15:00,
2013-05-16 14:20:00,77.3,44.3,29.72,WSW,246,2.0,8.0,31,0.00,,,0.00,Wunderground v.1.15,2013-05-16 18:20:00,
2013-05-16 14:25:00,77.5,46.1,29.72,SW,214,2.0,8.0,33,0.00,,,0.00,Wunderground v.1.15,2013-05-16 18:25:00,
2013-05-16 14:30:00,77.6,42.8,29.72,ENE,76,2.0,8.0,29,0.00,,,0.00,Wunderground v.1.15,2013-05-16 18:30:00,
2013-05-16 14:35:00,77.8,46.4,29.72,WNW,284,2.0,8.0,33,0.00,,,0.00,Wunderground v.1.15,2013-05-16 18:35:00,
2013-05-16 14:40:00,78.1,42.3,29.71,NW,304,2.0,2.0,28,0.00,,,0.00,Wunderground v.1.15,2013-05-16 18:40:00,
2013-05-16 14:45:00,78.0,43.2,29.71,East,88,2.0,8.0,29,0.00,,,0.00,Wunderground v.1.15,2013-05-16 18:45:00,
2013-05-16 14:55:00,78.0,43.2,29.72,NE,46,1.0,8.0,29,0.00,,,0.00,Wunderground v.1.15,2013-05-16 18:55:00,
2013-05-16 15:00:00,78.0,43.2,29.71,SE,139,1.0,1.0,29,0.00,,,0.00,Wunderground v.1.15,2013-05-16 19:00:00,
2013-05-16 15:05:00,77.9,43.1,29.71,NW,306,1.0,6.0,29,0.00,,,0.00,Wunderground v.1.15,2013-05-16 19:05:00,
2013-05-16 15:10:00,77.5,42.7,29.71,NNW,344,1.0,1.0,29,0.00,,,0.00,Wunderground v.1.15,2013-05-16 19:10:00,
2013-05-16 15:15:00,77.6,44.6,29.71,WNW,298,1.0,2.0,31,0.00,,,0.00,Wunderground v.1.15,2013-05-16 19:15:00,
2013-05-16 15:20:00,77.5,39.9,29.71,NE,55,2.0,8.0,26,0.00,,,0.00,Wunderground v.1.15,2013-05-16 19:20:00,
2013-05-16 15:25:00,77.0,42.3,29.71,West,279,1.0,8.0,29,0.00,,,0.00,Wunderground v.1.15,2013-05-16 19:25:00,
2013-05-16 15:35:00,76.6,43.7,29.71,North,10,1.0,8.0,31,0.00,,,0.00,Wunderground v.1.15,2013-05-16 19:35:00,
2013-05-16 15:40:00,76.7,45.4,29.70,SSE,155,1.0,8.0,33,0.00,,,0.00,Wunderground v.1.15,2013-05-16 19:40:00,
2013-05-16 15:45:00,76.7,40.2,29.70,East,85,1.0,8.0,27,0.00,,,0.00,Wunderground v.1.15,2013-05-16 19:45:00,
2013-05-16 15:55:00,76.9,40.4,29.70,NNW,329,2.0,8.0,27,0.00,,,0.00,Wunderground v.1.15,2013-05-16 19:55:00,
2013-05-16 16:00:00,77.5,39.9,29.70,SSE,156,1.0,8.0,26,0.00,,,0.00,Wunderground v.1.15,2013-05-16 20:00:00,
2013-05-16 16:05:00,77.8,39.1,29.70,ENE,71,2.0,8.0,25,0.00,,,0.00,Wunderground v.1.15,2013-05-16 20:05:00,
2013-05-16 16:10:00,77.8,40.2,29.70,North,5,2.0,8.0,26,0.00,,,0.00,Wunderground v.1.15,2013-05-16 20:10:00,
2013-05-16 16:15:00,77.6,39.0,29.70,NNE,27,2.0,8.0,25,0.00,,,0.00,Wunderground v.1.15,2013-05-16 20:15:00,
2013-05-16 16:25:00,77.3,38.7,29.70,WNW,293,2.0,8.0,25,0.00,,,0.00,Wunderground v.1.15,2013-05-16 20:25:00,
2013-05-16 16:30:00,76.8,42.1,29.70,ENE,69,1.0,1.0,29,0.00,,,0.00,Wunderground v.1.15,2013-05-16 20:30:00,
2013-05-16 16:35:00,76.6,40.1,29.70,NW,313,1.0,3.0,27,0.00,,,0.00,Wunderground v.1.15,2013-05-16 20:35:00,
2013-05-16 16:40:00,76.8,38.3,29.70,NNE,17,3.0,3.0,25,0.00,,,0.00,Wunderground v.1.15,2013-05-16 20:40:00,
2013-05-16 16:45:00,76.9,39.4,29.70,NNE,31,3.0,8.0,26,0.00,,,0.00,Wunderground v.1.15,2013-05-16 20:45:00,
2013-05-16 16:50:00,77.1,38.6,29.70,NNW,347,3.0,8.0,25,0.00,,,0.00,Wunderground v.1.15,2013-05-16 20:50:00,
2013-05-16 16:55:00,77.0,39.5,29.70,NNE,19,2.0,8.0,26,0.00,,,0.00,Wunderground v.1.15,2013-05-16 20:55:00,
2013-05-16 17:00:00,76.9,38.4,29.70,NE,55,2.0,2.0,25,0.00,,,0.00,Wunderground v.1.15,2013-05-16 21:00:00,
2013-05-16 17:10:00,76.7,37.2,29.70,South,177,2.0,8.0,24,0.00,,,0.00,Wunderground v.1.15,2013-05-16 21:10:00,
2013-05-16 17:15:00,76.6,38.1,29.70,WNW,292,2.0,8.0,25,0.00,,,0.00,Wunderground v.1.15,2013-05-16 21:15:00,
2013-05-16 17:20:00,76.4,38.0,29.70,NNE,17,1.0,1.0,25,0.00,,,0.00,Wunderground v.1.15,2013-05-16 21:20:00,
2013-05-16 17:25:00,76.2,37.8,29.70,NE,40,2.0,3.0,25,0.00,,,0.00,Wunderground v.1.15,2013-05-16 21:25:00,
2013-05-16 17:35:00,75.9,37.5,29.70,North,355,2.0,8.0,25,0.00,,,0.00,Wunderground v.1.15,2013-05-16 21:35:00,
2013-05-16 17:40:00,75.8,38.5,29.70,NE,52,2.0,2.0,26,0.00,,,0.00,Wunderground v.1.15,2013-05-16 21:40:00,
2013-05-16 17:45:00,75.7,39.3,29.70,North,351,2.0,4.0,27,0.00,,,0.00,Wunderground v.1.15,2013-05-16 21:45:00,
2013-05-16 17:50:00,75.7,38.4,29.70,ENE,71,2.0,8.0,26,0.00,,,0.00,Wunderground v.1.15,2013-05-16 21:50:00,
2013-05-16 18:00:00,75.5,40.1,29.70,NNE,24,2.0,2.0,28,0.00,,,0.00,Wunderground v.1.15,2013-05-16 22:00:00,
2013-05-16 18:10:00,75.1,37.9,29.70,NNE,12,1.0,8.0,26,0.00,,,0.00,Wunderground v.1.15,2013-05-16 22:10:00,
2013-05-16 18:15:00,75.0,39.7,29.70,NE,51,1.0,8.0,28,0.00,,,0.00,Wunderground v.1.15,2013-05-16 22:15:00,
2013-05-16 18:20:00,74.9,38.7,29.70,NE,52,1.0,8.0,27,0.00,,,0.00,Wunderground v.1.15,2013-05-16 22:20:00,
2013-05-16 18:25:00,74.8,38.6,29.70,North,360,1.0,8.0,27,0.00,,,0.00,Wunderground v.1.15,2013-05-16 22:25:00,
2013-05-16 18:30:00,74.6,41.1,29.70,NNW,339,0.0,8.0,30,0.00,,,0.00,Wunderground v.1.15,2013-05-16 22:30:00,
2013-05-16 18:40:00,73.9,40.5,29.70,NW,319,0.0,8.0,30,0.00,,,0.00,Wunderground v.1.15,2013-05-16 22:40:00,
2013-05-16 18:45:00,73.7,38.6,29.70,ENE,63,1.0,8.0,28,0.00,,,0.00,Wunderground v.1.15,2013-05-16 22:45:00,
2013-05-16 18:50:00,73.6,38.5,29.70,NNE,15,0.0,8.0,28,0.00,,,0.00,Wunderground v.1.15,2013-05-16 22:50:00,
2013-05-16 18:55:00,73.5,40.2,29.71,NNE,15,0.0,8.0,30,0.00,,,0.00,Wunderground v.1.15,2013-05-16 22:55:00,
2013-05-16 19:00:00,73.3,40.8,29.71,NE,48,0.0,8.0,31,0.00,,,0.00,Wunderground v.1.15,2013-05-16 23:00:00,
2013-05-16 19:05:00,73.0,39.7,29.71,NE,48,0.0,8.0,30,0.00,,,0.00,Wunderground v.1.15,2013-05-16 23:05:00,
2013-05-16 19:10:00,72.8,39.5,29.72,NNE,22,0.0,8.0,30,0.00,,,0.00,Wunderground v.1.15,2013-05-16 23:10:00,
2013-05-16 19:15:00,72.6,40.2,29.72,NNW,341,0.0,8.0,31,0.00,,,0.00,Wunderground v.1.15,2013-05-16 23:15:00,
2013-05-16 19:20:00,72.3,40.8,29.72,South,186,0.0,8.0,32,0.00,,,0.00,Wunderground v.1.15,2013-05-16 23:20:00,
2013-05-16 19:30:00,71.3,41.5,29.72,South,175,0.0,8.0,34,0.00,,,0.00,Wunderground v.1.15,2013-05-16 23:30:00,
2013-05-16 19:35:00,70.9,41.1,29.73,South,175,0.0,8.0,34,0.00,,,0.00,Wunderground v.1.15,2013-05-16 23:35:00,
2013-05-16 19:40:00,70.5,41.5,29.73,ESE,102,0.0,8.0,35,0.00,,,0.00,Wunderground v.1.15,2013-05-16 23:40:00,
2013-05-16 19:45:00,70.0,41.1,29.73,East,101,0.0,8.0,35,0.00,,,0.00,Wunderground v.1.15,2013-05-16 23:45:00,
2013-05-16 19:50:00,69.5,41.4,29.73,East,81,0.0,8.0,36,0.00,,,0.00,Wunderground v.1.15,2013-05-16 23:50:00,
2013-05-16 19:55:00,68.8,42.1,29.73,East,81,0.0,8.0,38,0.00,,,0.00,Wunderground v.1.15,2013-05-16 23:55:00,
2013-05-16 20:00:00,68.1,41.5,29.74,NE,47,0.0,8.0,38,0.00,,,0.00,Wunderground v.1.15,2013-05-17 00:00:00,
2013-05-16 20:10:00,66.6,42.2,29.74,NE,46,0.0,8.0,41,0.00,,,0.00,Wunderground v.1.15,2013-05-17 00:10:00,
2013-05-16 20:15:00,66.0,42.2,29.74,NE,40,1.0,8.0,42,0.00,,,0.00,Wunderground v.1.15,2013-05-17 00:15:00,
2013-05-16 20:20:00,65.5,42.4,29.74,NE,40,1.0,1.0,43,0.00,,,0.00,Wunderground v.1.15,2013-05-17 00:20:00,
2013-05-16 20:30:00,64.7,41.7,29.74,NE,40,1.0,8.0,43,0.00,,,0.00,Wunderground v.1.15,2013-05-17 00:30:00,
2013-05-16 20:35:00,64.3,41.9,29.75,NE,40,1.0,8.0,44,0.00,,,0.00,Wunderground v.1.15,2013-05-17 00:35:00,
2013-05-16 20:40:00,64.1,41.7,29.75,NE,40,1.0,1.0,44,0.00,,,0.00,Wunderground v.1.15,2013-05-17 00:40:00,
2013-05-16 20:45:00,64.0,41.6,29.75,NE,40,1.0,8.0,44,0.00,,,0.00,Wunderground v.1.15,2013-05-17 00:45:00,
2013-05-16 20:50:00,63.8,40.9,29.76,NE,40,1.0,1.0,43,0.00,,,0.00,Wunderground v.1.15,2013-05-17 00:50:00,
2013-05-16 21:00:00,63.8,40.9,29.76,NE,39,0.0,8.0,43,0.00,,,0.00,Wunderground v.1.15,2013-05-17 01:00:00,
2013-05-16 21:05:00,64.0,40.4,29.76,NE,39,1.0,8.0,42,0.00,,,0.00,Wunderground v.1.15,2013-05-17 01:05:00,
2013-05-16 21:10:00,64.4,40.2,29.77,NE,38,0.0,8.0,41,0.00,,,0.00,Wunderground v.1.15,2013-05-17 01:10:00,
2013-05-16 21:15:00,64.6,39.7,29.77,NNE,25,0.0,8.0,40,0.00,,,0.00,Wunderground v.1.15,2013-05-17 01:15:00,
2013-05-16 21:20:00,65.1,40.2,29.77,NE,34,0.0,8.0,40,0.00,,,0.00,Wunderground v.1.15,2013-05-17 01:20:00,
2013-05-16 21:30:00,65.6,39.3,29.78,NNE,33,0.0,8.0,38,0.00,,,0.00,Wunderground v.1.15,2013-05-17 01:30:00,
2013-05-16 21:35:00,65.4,39.8,29.78,NNE,17,0.0,8.0,39,0.00,,,0.00,Wunderground v.1.15,2013-05-17 01:35:00,
2013-05-16 21:40:00,65.0,40.7,29.79,NNE,17,0.0,8.0,41,0.00,,,0.00,Wunderground v.1.15,2013-05-17 01:40:00,
2013-05-16 21:45:00,64.5,40.9,29.79,NNE,17,0.0,8.0,42,0.00,,,0.00,Wunderground v.1.15,2013-05-17 01:45:00,
2013-05-16 21:50:00,64.1,41.1,29.79,NNE,19,0.0,8.0,43,0.00,,,0.00,Wunderground v.1.15,2013-05-17 01:50:00,
2013-05-16 21:55:00,63.9,41.5,29.80,NNE,33,0.0,8.0,44,0.00,,,0.00,Wunderground v.1.15,2013-05-17 01:55:00,
2013-05-16 22:00:00,63.9,42.1,29.80,ENE,68,1.0,1.0,45,0.00,,,0.00,Wunderground v.1.15,2013-05-17 02:00:00,
2013-05-16 22:10:00,63.6,41.9,29.80,ENE,61,1.0,8.0,45,0.00,,,0.00,Wunderground v.1.15,2013-05-17 02:10:00,
2013-05-16 22:20:00,63.6,42.4,29.81,NE,47,1.0,8.0,46,0.00,,,0.00,Wunderground v.1.15,2013-05-17 02:20:00,
2013-05-16 22:30:00,62.9,42.4,29.81,NE,49,0.0,8.0,47,0.00,,,0.00,Wunderground v.1.15,2013-05-17 02:30:00,
2013-05-16 22:40:00,62.4,41.9,29.80,East,80,1.0,1.0,47,0.00,,,0.00,Wunderground v.1.15,2013-05-17 02:40:00,
2013-05-16 22:45:00,62.2,42.3,29.80,North,5,1.0,8.0,48,0.00,,,0.00,Wunderground v.1.15,2013-05-17 02:45:00,
2013-05-16 22:50:00,62.0,42.1,29.81,North,10,1.0,1.0,48,0.00,,,0.00,Wunderground v.1.15,2013-05-17 02:50:00,
2013-05-16 22:55:00,61.7,42.3,29.81,NE,49,0.0,8.0,49,0.00,,,0.00,Wunderground v.1.15,2013-05-17 02:55:00,
2013-05-16 23:00:00,61.4,42.6,29.81,NE,45,0.0,8.0,50,0.00,,,0.00,Wunderground v.1.15,2013-05-17 03:00:00,
2013-05-16 23:05:00,61.0,42.7,29.81,NE,39,0.0,8.0,51,0.00,,,0.00,Wunderground v.1.15,2013-05-17 03:05:00,
2013-05-16 23:10:00,60.7,41.9,29.81,ENE,63,0.0,8.0,50,0.00,,,0.00,Wunderground v.1.15,2013-05-17 03:10:00,
2013-05-16 23:15:00,60.4,42.2,29.81,ENE,63,0.0,8.0,51,0.00,,,0.00,Wunderground v.1.15,2013-05-17 03:15:00,
2013-05-16 23:25:00,60.2,41.5,29.81,NNE,15,1.0,8.0,50,0.00,,,0.00,Wunderground v.1.15,2013-05-17 03:25:00,
2013-05-16 23:35:00,60.2,41.5,29.81,ENE,64,1.0,8.0,50,0.00,,,0.00,Wunderground v.1.15,2013-05-17 03:35:00,
2013-05-16 23:40:00,60.0,41.3,29.81,North,5,0.0,8.0,50,0.00,,,0.00,Wunderground v.1.15,2013-05-17 03:40:00,
2013-05-16 23:45:00,59.9,40.7,29.82,NNE,20,1.0,8.0,49,0.00,,,0.00,Wunderground v.1.15,2013-05-17 03:45:00,
2013-05-16 23:50:00,59.9,40.1,29.82,NE,52,1.0,1.0,48,0.00,,,0.00,Wunderground v.1.15,2013-05-17 03:50:00,